• In Spain
  • List of Countries
  • For 7 days
  • Water Temperature
  • Satellite Maps
  • Weather Map
  • Weather Widgets
  • user-avatar
    Login

    Hourly Weather Varna

    Today, 26 September, Wednesday

    Time Temperature Precipitation Wind Pressure Humidity
    00:00 +9°C° 0 mm 7 mps 757 mmHg 51%
    01:00 +9°C° 0 mm 7 mps 757 mmHg 53%
    02:00 +7°C° 0 mm 8 mps 757 mmHg 54%
    03:00 +7°C° 0 mm 8 mps 758 mmHg 56%
    04:00 +6°C° 0 mm 8 mps 758 mmHg 59%
    05:00 +6°C° 0 mm 8 mps 758 mmHg 61%
    06:00 +6°C° 0 mm 8 mps 758 mmHg 59%
    07:00 +7°C° 0 mm 9 mps 758 mmHg 57%
    08:00 +8°C° 0 mm 9 mps 759 mmHg 55%
    09:00 +10°C° 0 mm 9 mps 759 mmHg 49%
    10:00 +11°C° 0 mm 9 mps 759 mmHg 44%
    11:00 +13°C° 0 mm 9 mps 759 mmHg 38%
    12:00 +13°C° 0 mm 9 mps 759 mmHg 37%
    13:00 +15°C° 0 mm 9 mps 759 mmHg 35%
    14:00 +15°C° 0 mm 9 mps 758 mmHg 33%
    15:00 +15°C° 0 mm 9 mps 758 mmHg 34%
    16:00 +13°C° 0 mm 9 mps 758 mmHg 35%
    17:00 +13°C° 0 mm 8 mps 758 mmHg 36%
    18:00 +12°C° 0 mm 8 mps 758 mmHg 38%
    19:00 +11°C° 0 mm 8 mps 758 mmHg 41%
    20:00 +10°C° 0 mm 7 mps 759 mmHg 43%
    21:00 +9°C° 0 mm 7 mps 759 mmHg 44%
    22:00 +9°C° 0 mm 7 mps 759 mmHg 44%
    23:00 +8°C° 0 mm 7 mps 759 mmHg 45%

    Tomorrow, 27 September, Thursday

    Time Temperature Precipitation Wind Pressure Humidity
    00:00 +8°C° 0 mm 7 mps 759 mmHg 45%
    01:00 +6°C° 0 mm 7 mps 759 mmHg 46%
    02:00 +6°C° 0 mm 7 mps 758 mmHg 47%
    03:00 +5°C° 0 mm 7 mps 758 mmHg 48%
    04:00 +5°C° 0 mm 7 mps 758 mmHg 49%
    05:00 +5°C° 0 mm 7 mps 758 mmHg 50%
    06:00 +5°C° 0 mm 7 mps 758 mmHg 47%
    07:00 +6°C° 0 mm 7 mps 758 mmHg 45%
    08:00 +8°C° 0 mm 7 mps 758 mmHg 43%
    09:00 +10°C° 0 mm 7 mps 758 mmHg 39%
    10:00 +13°C° 0 mm 6 mps 758 mmHg 35%
    11:00 +15°C° 0 mm 6 mps 757 mmHg 31%
    12:00 +16°C° 0 mm 6 mps 757 mmHg 30%
    13:00 +17°C° 0 mm 5 mps 756 mmHg 28%
    14:00 +17°C° 0 mm 5 mps 756 mmHg 27%
    15:00 +17°C° 0 mm 5 mps 756 mmHg 27%
    16:00 +18°C° 0 mm 4 mps 755 mmHg 27%
    17:00 +17°C° 0 mm 4 mps 755 mmHg 27%
    18:00 +15°C° 0 mm 4 mps 755 mmHg 31%
    19:00 +13°C° 0 mm 3 mps 755 mmHg 34%
    20:00 +11°C° 0 mm 3 mps 755 mmHg 37%
    21:00 +12°C° 0 mm 2 mps 755 mmHg 39%
    22:00 +12°C° 0 mm 2 mps 755 mmHg 40%
    23:00 +10°C° 0 mm 2 mps 755 mmHg 42%

    Day after tomorrow, 28 September, Friday

    Time Temperature Precipitation Wind Pressure Humidity
    00:00 +10°C° 0 mm 2 mps 754 mmHg 42%
    01:00 +10°C° 0 mm 2 mps 754 mmHg 43%
    02:00 +9°C° 0 mm 2 mps 754 mmHg 43%
    03:00 +9°C° 0 mm 2 mps 753 mmHg 43%
    04:00 +9°C° 0 mm 3 mps 753 mmHg 43%
    05:00 +9°C° 0 mm 3 mps 752 mmHg 43%
    06:00 +10°C° 0 mm 3 mps 752 mmHg 40%
    07:00 +11°C° 0 mm 3 mps 752 mmHg 38%
    08:00 +13°C° 0 mm 3 mps 752 mmHg 36%
    09:00 +14°C° 0 mm 3 mps 752 mmHg 35%
    10:00 +17°C° 0 mm 3 mps 752 mmHg 33%
    11:00 +19°C° 0 mm 3 mps 752 mmHg 32%
    12:00 +20°C° 0 mm 3 mps 751 mmHg 32%
    13:00 +20°C° 0 mm 3 mps 750 mmHg 32%
    14:00 +21°C° 0 mm 3 mps 750 mmHg 32%
    15:00 +20°C° 0 mm 3 mps 749 mmHg 35%
    16:00 +20°C° 0 mm 3 mps 749 mmHg 38%
    17:00 +19°C° 0 mm 3 mps 748 mmHg 42%
    18:00 +18°C° 0 mm 3 mps 748 mmHg 48%
    19:00 +16°C° 0 mm 3 mps 748 mmHg 55%
    20:00 +14°C° 0 mm 3 mps 748 mmHg 62%
    21:00 +14°C° 0 mm 2 mps 748 mmHg 64%
    22:00 +14°C° 0 mm 2 mps 748 mmHg 66%
    23:00 +14°C° 0 mm 2 mps 748 mmHg 67%

    29 September, Saturday

    Time Temperature Precipitation Wind Pressure Humidity
    00:00 +14°C° 0 mm 2 mps 747 mmHg 68%
    01:00 +14°C° 0 mm 1 mps 747 mmHg 69%
    02:00 +13°C° 0 mm 1 mps 747 mmHg 70%
    03:00 +13°C° 0 mm 1 mps 747 mmHg 71%
    04:00 +13°C° 0 mm 2 mps 747 mmHg 72%
    05:00 +13°C° 0 mm 2 mps 746 mmHg 73%
    06:00 +14°C° 0 mm 2 mps 746 mmHg 69%
    07:00 +15°C° 0 mm 2 mps 746 mmHg 65%
    08:00 +16°C° 0 mm 3 mps 746 mmHg 62%
    09:00 +18°C° 0 mm 3 mps 746 mmHg 59%
    10:00 +19°C° 0 mm 3 mps 747 mmHg 56%
    11:00 +20°C° 0 mm 3 mps 747 mmHg 53%
    12:00 +21°C° 0.1 mm 4 mps 746 mmHg 53%
    13:00 +21°C° 0.1 mm 4 mps 746 mmHg 53%
    14:00 +22°C° 0.1 mm 4 mps 746 mmHg 52%
    15:00 +21°C° 0 mm 4 mps 746 mmHg 55%
    16:00 +21°C° 0 mm 4 mps 746 mmHg 57%
    17:00 +20°C° 0 mm 5 mps 746 mmHg 60%
    18:00 +19°C° 0 mm 5 mps 746 mmHg 65%
    19:00 +18°C° 0 mm 4 mps 746 mmHg 70%
    20:00 +17°C° 0 mm 4 mps 747 mmHg 75%
    21:00 +17°C° 0.1 mm 4 mps 747 mmHg 75%
    22:00 +15°C° 0.1 mm 4 mps 747 mmHg 76%
    23:00 +15°C° 0.1 mm 4 mps 747 mmHg 77%

    30 September, Sunday

    Time Temperature Precipitation Wind Pressure Humidity
    00:00 +15°C° 0.1 mm 5 mps 747 mmHg 77%
    01:00 +15°C° 0.1 mm 5 mps 747 mmHg 77%
    02:00 +15°C° 0.1 mm 5 mps 747 mmHg 77%
    03:00 +15°C° 0 mm 5 mps 747 mmHg 77%
    04:00 +15°C° 0 mm 5 mps 747 mmHg 77%
    05:00 +15°C° 0 mm 5 mps 747 mmHg 76%
    06:00 +16°C° 0.1 mm 5 mps 747 mmHg 75%
    07:00 +16°C° 0.1 mm 6 mps 747 mmHg 74%
    08:00 +16°C° 0.1 mm 6 mps 748 mmHg 73%
    09:00 +17°C° 0 mm 6 mps 748 mmHg 70%
    10:00 +18°C° 0 mm 7 mps 748 mmHg 66%
    11:00 +20°C° 0 mm 7 mps 748 mmHg 63%
    12:00 +21°C° 0 mm 7 mps 748 mmHg 60%
    13:00 +22°C° 0 mm 7 mps 747 mmHg 57%
    14:00 +22°C° 0 mm 7 mps 747 mmHg 54%
    15:00 +22°C° 0 mm 7 mps 747 mmHg 56%
    16:00 +21°C° 0 mm 7 mps 747 mmHg 58%
    17:00 +21°C° 0 mm 6 mps 747 mmHg 60%
    18:00 +20°C° 0 mm 6 mps 747 mmHg 66%
    19:00 +19°C° 0 mm 6 mps 747 mmHg 71%
    20:00 +17°C° 0 mm 6 mps 747 mmHg 76%
    21:00 +17°C° 0 mm 5 mps 747 mmHg 78%
    22:00 +17°C° 0 mm 5 mps 746 mmHg 80%
    23:00 +17°C° 0 mm 4 mps 746 mmHg 81%

    1 October, Monday

    Time Temperature Precipitation Wind Pressure Humidity
    00:00 +16°C° 0.1 mm 5 mps 746 mmHg 82%
    01:00 +16°C° 0.1 mm 5 mps 746 mmHg 82%
    02:00 +16°C° 0.1 mm 5 mps 745 mmHg 83%
    03:00 +15°C° 0.4 mm 5 mps 745 mmHg 83%
    04:00 +15°C° 0.4 mm 5 mps 745 mmHg 84%
    05:00 +15°C° 0.4 mm 5 mps 745 mmHg 85%
    06:00 +15°C° 0.7 mm 5 mps 745 mmHg 84%
    07:00 +16°C° 0.7 mm 5 mps 745 mmHg 84%
    08:00 +17°C° 0.7 mm 5 mps 745 mmHg 84%
    09:00 +17°C° 0.4 mm 5 mps 745 mmHg 81%
    10:00 +19°C° 0.4 mm 5 mps 745 mmHg 78%
    11:00 +20°C° 0.4 mm 5 mps 745 mmHg 75%
    12:00 +21°C° 0.1 mm 5 mps 744 mmHg 73%
    13:00 +21°C° 0.1 mm 5 mps 744 mmHg 70%
    14:00 +21°C° 0.1 mm 5 mps 744 mmHg 68%
    15:00 +21°C° 0 mm 5 mps 744 mmHg 70%
    16:00 +20°C° 0 mm 5 mps 744 mmHg 72%
    17:00 +20°C° 0 mm 5 mps 744 mmHg 74%
    18:00 +19°C° 0 mm 4 mps 744 mmHg 78%
    19:00 +18°C° 0 mm 4 mps 744 mmHg 83%
    20:00 +15°C° 0 mm 4 mps 744 mmHg 88%
    21:00 +16°C° 0 mm 3 mps 745 mmHg 89%
    22:00 +16°C° 0 mm 3 mps 745 mmHg 89%
    23:00 +15°C° 0 mm 2 mps 745 mmHg 90%
    Show more